• In Russia
  • List of Countries
  • For 7 days
  • Water Temperature
  • Weather Map
  • Weather Widgets
  • user-avatar
    Login

    Hourly Weather Kabul

    Today, 28 January, Tuesday

    Time Temperature Precipitation Wind Pressure Humidity
    00:00 -4°C° 0 mm 1 mps 605 mmHg 61%
    01:00 -7°C° 0 mm 2 mps 605 mmHg 60%
    02:00 -7°C° 0 mm 2 mps 605 mmHg 59%
    03:00 -7°C° 0 mm 2 mps 604 mmHg 59%
    04:00 -8°C° 0 mm 2 mps 604 mmHg 58%
    05:00 -8°C° 0 mm 1 mps 603 mmHg 57%
    06:00 -9°C° 0 mm 2 mps 603 mmHg 57%
    07:00 -9°C° 0 mm 2 mps 603 mmHg 56%
    08:00 -9°C° 0 mm 2 mps 603 mmHg 56%
    09:00 -8°C° 0 mm 2 mps 603 mmHg 57%
    10:00 -6°C° 0 mm 2 mps 603 mmHg 58%
    11:00 -5°C° 0 mm 2 mps 603 mmHg 60%
    12:00 -4°C° 0 mm 2 mps 603 mmHg 60%
    13:00 -4°C° 0 mm 2 mps 603 mmHg 61%
    14:00 -3°C° 0 mm 2 mps 602 mmHg 62%
    15:00 -4°C° 0 mm 2 mps 602 mmHg 63%
    16:00 -5°C° 0 mm 2 mps 601 mmHg 64%
    17:00 -6°C° 0 mm 2 mps 601 mmHg 65%
    18:00 -7°C° 0 mm 2 mps 601 mmHg 60%
    19:00 -7°C° 0 mm 2 mps 602 mmHg 56%
    20:00 -8°C° 0 mm 2 mps 603 mmHg 51%
    21:00 -8°C° 0 mm 2 mps 603 mmHg 50%
    22:00 -9°C° 0 mm 2 mps 603 mmHg 49%
    23:00 -9°C° 0 mm 2 mps 602 mmHg 48%

    Tomorrow, 29 January, Wednesday

    Time Temperature Precipitation Wind Pressure Humidity
    00:00 -9°C° 0 mm 2 mps 602 mmHg 48%
    01:00 -9°C° 0 mm 2 mps 602 mmHg 47%
    02:00 -10°C° 0 mm 2 mps 602 mmHg 47%
    03:00 -10°C° 0 mm 2 mps 602 mmHg 46%
    04:00 -10°C° 0 mm 2 mps 601 mmHg 46%
    05:00 -12°C° 0 mm 2 mps 601 mmHg 46%
    06:00 -12°C° 0 mm 2 mps 601 mmHg 45%
    07:00 -12°C° 0 mm 2 mps 601 mmHg 45%
    08:00 -12°C° 0 mm 2 mps 602 mmHg 44%
    09:00 -9°C° 0 mm 2 mps 602 mmHg 47%
    10:00 -7°C° 0 mm 2 mps 603 mmHg 49%
    11:00 -6°C° 0 mm 2 mps 603 mmHg 52%
    12:00 -5°C° 0 mm 2 mps 603 mmHg 53%
    13:00 -4°C° 0 mm 2 mps 603 mmHg 54%
    14:00 -1°C° 0 mm 1 mps 603 mmHg 55%
    15:00 -2°C° 0 mm 1 mps 603 mmHg 57%
    16:00 -3°C° 0 mm 1 mps 603 mmHg 59%
    17:00 -4°C° 0 mm 1 mps 603 mmHg 61%
    18:00 -6°C° 0 mm 1 mps 603 mmHg 57%
    19:00 -7°C° 0 mm 1 mps 604 mmHg 54%
    20:00 -7°C° 0 mm 1 mps 604 mmHg 51%
    21:00 -8°C° 0 mm 2 mps 604 mmHg 49%
    22:00 -9°C° 0 mm 2 mps 605 mmHg 48%
    23:00 -9°C° 0 mm 2 mps 605 mmHg 47%

    Day after tomorrow, 30 January, Thursday

    Time Temperature Precipitation Wind Pressure Humidity
    00:00 -9°C° 0 mm 2 mps 605 mmHg 46%
    01:00 -9°C° 0 mm 2 mps 605 mmHg 46%
    02:00 -10°C° 0 mm 2 mps 605 mmHg 46%
    03:00 -10°C° 0 mm 2 mps 604 mmHg 45%
    04:00 -10°C° 0 mm 2 mps 604 mmHg 44%
    05:00 -10°C° 0 mm 2 mps 604 mmHg 44%
    06:00 -10°C° 0 mm 2 mps 604 mmHg 44%
    07:00 -10°C° 0 mm 2 mps 604 mmHg 43%
    08:00 -10°C° 0 mm 2 mps 604 mmHg 43%
    09:00 -9°C° 0 mm 2 mps 604 mmHg 45%
    10:00 -7°C° 0 mm 2 mps 604 mmHg 47%
    11:00 -5°C° 0 mm 2 mps 605 mmHg 49%
    12:00 -5°C° 0 mm 2 mps 604 mmHg 51%
    13:00 -4°C° 0 mm 2 mps 604 mmHg 52%
    14:00 -3°C° 0 mm 2 mps 603 mmHg 54%
    15:00 -2°C° 0 mm 1 mps 603 mmHg 56%
    16:00 -3°C° 0 mm 1 mps 603 mmHg 59%
    17:00 -3°C° 0 mm 1 mps 602 mmHg 61%
    18:00 -4°C° 0 mm 1 mps 603 mmHg 59%
    19:00 -4°C° 0 mm 1 mps 603 mmHg 57%
    20:00 -4°C° 0 mm 1 mps 604 mmHg 54%
    21:00 -4°C° 0 mm 1 mps 604 mmHg 54%
    22:00 -4°C° 0 mm 1 mps 604 mmHg 54%
    23:00 -4°C° 0 mm 1 mps 603 mmHg 53%

    31 January, Friday

    Time Temperature Precipitation Wind Pressure Humidity
    00:00 -4°C° 0 mm 1 mps 603 mmHg 54%
    01:00 -4°C° 0 mm 1 mps 603 mmHg 55%
    02:00 -4°C° 0 mm 1 mps 603 mmHg 55%
    03:00 -6°C° 0 mm 1 mps 603 mmHg 56%
    04:00 -6°C° 0 mm 1 mps 603 mmHg 57%
    05:00 -6°C° 0 mm 1 mps 602 mmHg 57%
    06:00 -6°C° 0 mm 1 mps 602 mmHg 58%
    07:00 -6°C° 0 mm 1 mps 603 mmHg 59%
    08:00 -4°C° 0 mm 1 mps 603 mmHg 60%
    09:00 -3°C° 0 mm 1 mps 603 mmHg 60%
    10:00 -2°C° 0 mm 1 mps 603 mmHg 61%
    11:00 -1°C° 0 mm 1 mps 604 mmHg 61%
    12:00 0°C° 0 mm 1 mps 603 mmHg 63%
    13:00 0°C° 0 mm 1 mps 603 mmHg 65%
    14:00 +1°C° 0 mm 1 mps 603 mmHg 68%
    15:00 0°C° 0 mm 1 mps 602 mmHg 69%
    16:00 -1°C° 0 mm 1 mps 602 mmHg 70%
    17:00 -1°C° 0 mm 1 mps 602 mmHg 71%
    18:00 -2°C° 0 mm 1 mps 602 mmHg 69%
    19:00 -5°C° 0 mm 2 mps 603 mmHg 66%
    20:00 -6°C° 0 mm 2 mps 603 mmHg 64%
    21:00 -6°C° 0 mm 2 mps 604 mmHg 63%
    22:00 -6°C° 0 mm 2 mps 604 mmHg 62%
    23:00 -6°C° 0 mm 2 mps 604 mmHg 61%

    1 February, Saturday

    Time Temperature Precipitation Wind Pressure Humidity
    00:00 -7°C° 0 mm 2 mps 604 mmHg 60%
    01:00 -7°C° 0 mm 2 mps 604 mmHg 60%
    02:00 -7°C° 0 mm 2 mps 604 mmHg 59%
    03:00 -7°C° 0 mm 2 mps 604 mmHg 59%
    04:00 -8°C° 0 mm 2 mps 604 mmHg 58%
    05:00 -8°C° 0 mm 2 mps 603 mmHg 58%
    06:00 -8°C° 0 mm 2 mps 604 mmHg 57%
    07:00 -8°C° 0 mm 2 mps 604 mmHg 57%
    08:00 -8°C° 0 mm 2 mps 604 mmHg 56%
    09:00 -7°C° 0 mm 2 mps 604 mmHg 57%
    10:00 -5°C° 0 mm 2 mps 605 mmHg 57%
    11:00 -4°C° 0 mm 2 mps 605 mmHg 58%
    12:00 -3°C° 0 mm 2 mps 605 mmHg 60%
    13:00 -2°C° 0 mm 2 mps 605 mmHg 61%
    14:00 0°C° 0 mm 1 mps 604 mmHg 63%
    15:00 0°C° 0 mm 1 mps 604 mmHg 64%
    16:00 -1°C° 0 mm 1 mps 604 mmHg 66%
    17:00 -2°C° 0 mm 1 mps 604 mmHg 67%
    18:00 -2°C° 0 mm 1 mps 604 mmHg 64%
    19:00 -3°C° 0 mm 1 mps 605 mmHg 61%
    20:00 -6°C° 0 mm 2 mps 606 mmHg 58%
    21:00 -6°C° 0 mm 2 mps 606 mmHg 57%
    22:00 -6°C° 0 mm 2 mps 606 mmHg 56%
    23:00 -6°C° 0 mm 2 mps 606 mmHg 55%

    2 February, Sunday

    Time Temperature Precipitation Wind Pressure Humidity
    00:00 -7°C° 0 mm 2 mps 606 mmHg 54%
    01:00 -7°C° 0 mm 2 mps 606 mmHg 54%
    02:00 -7°C° 0 mm 2 mps 606 mmHg 54%
    03:00 -7°C° 0 mm 2 mps 605 mmHg 54%
    04:00 -8°C° 0 mm 2 mps 605 mmHg 54%
    05:00 -8°C° 0 mm 2 mps 605 mmHg 54%
    06:00 -8°C° 0 mm 2 mps 605 mmHg 54%
    07:00 -8°C° 0 mm 2 mps 605 mmHg 54%
    08:00 -8°C° 0 mm 2 mps 605 mmHg 54%
    09:00 -7°C° 0 mm 2 mps 605 mmHg 55%
    10:00 -5°C° 0 mm 2 mps 605 mmHg 55%
    11:00 -3°C° 0 mm 2 mps 606 mmHg 56%
    12:00 -3°C° 0 mm 2 mps 605 mmHg 58%
    13:00 -2°C° 0 mm 2 mps 605 mmHg 60%
    14:00 -2°C° 0 mm 2 mps 605 mmHg 62%
    15:00 0°C° 0 mm 1 mps 605 mmHg 63%
    16:00 -1°C° 0 mm 1 mps 604 mmHg 64%
    17:00 -2°C° 0 mm 1 mps 604 mmHg 65%
    18:00 -2°C° 0 mm 1 mps 605 mmHg 62%
    19:00 -3°C° 0 mm 1 mps 605 mmHg 59%
    20:00 -6°C° 0 mm 2 mps 605 mmHg 56%
    21:00 -6°C° 0 mm 2 mps 605 mmHg 55%
    22:00 -6°C° 0 mm 2 mps 606 mmHg 55%
    23:00 -6°C° 0 mm 2 mps 606 mmHg 54%
    Show more